EXPRESS AMU-3

Last updated on Mon Oct 14 2024 00:02:41 GMT+0000 (Coordinated Universal Time)

1 50002U 21123B 24286.65358519 -.00000322 00000+0 00000+0 0 9996 2 50002 0.0208 244.7994 0000279 233.7964 241.4360 1.00271867 10362
UTC large
Height (km)
Speed (km/s)
/
Latitude / Longitude
Inclination (degrees)
Orbital Period (minutes)
Azimuth
Elevation
Range (km)
Doppler Factor

Next 0 passes for location: London (51.5072 / 0.1276)

Sorry there are no passes over London.